Погода в Улыбышеве

Россия / Владимирская область     56˚01′47″N   40˚23′22″E
темп.,
°C
ветер,
м/с
пор.,
м/с
влажн.,
%
обл.,
%
осадки,
мм/ч
давл.,
гПа
погр.,
м
16 января, сб
сб1600:00−14˚с3696100 1.1 1009269
03:00−13˚с4995100 2.6 1007403
06:00−12˚с51094100 1.3 1004532
09:00−12˚с41095100 3.8 1003702
12:00−12˚с5994100 2.6 1002769
15:00−13˚с4894100 4.1 1002707
18:00−15˚ссз4895100 0.8 1002508
21:00−16˚ссз3796100 1.4 1004423
17 января, вс
вс1700:00−17˚ссз3895100 0.4 1005442
03:00−19˚сз3895100 0.4 1008376
06:00−22˚сз379699 0.1 1009302
09:00−25˚ссз269897 0.1 1011173
12:00−23˚ссз249575 0.0 1014232
15:00−23˚ссз239662 0.0 1015190
18:00−26˚ссз12970 0.0 101719
21:00−27˚ссз11983 0.0 101819
18 января, пн
пн1800:00−27˚ссв11980 0.0 101919
03:00−26˚юз119844 0.0 101919
06:00−26˚зсз119797 0.0 101919
09:00−26˚зюз009786 0.0 102020
12:00−21˚зюз1193100 0.0 1019121
15:00−20˚з119696 0.0 101931
18:00−24˚ссз119644 0.0 101920
21:00−24˚зюз119672 0.0 101920
19 января, вт
вт1900:00−23˚зсз1296100 0.0 101820
03:00−23˚ссз0195100 0.0 101820
06:00−23˚зсз1195100 0.0 101720
09:00−23˚сз1194100 0.0 101720
12:00−18˚с1191100 0.0 1016174
15:00−17˚ссз1194100 0.1 1015221
18:00−18˚сз129797 0.1 101621
21:00−19˚ссз119893 0.1 101620
20 января, ср
ср2000:00−20˚сз129981 0.1 101720
03:00−19˚з129983 0.1 101820
06:00−19˚з229889 0.1 101820
09:00−18˚з229892 0.1 101928
12:00−14˚з239590 0.0 1019190
15:00−13˚зюз249690 0.1 1019186
18:00−16˚юз239726 0.0 102040
21:00−17˚юз369713 0.0 1020116